Portland Troutdale, OR

9:33 AM PDT on April 26, 2018 (GMT -0700)
Portland-Troutdale

Weather History for KTTD - November, 2011

Change the Weather History Date:

Saturday, November 12, 2011

  Actual Average Record
Temperature  
Mean Temperature 46 °F 47 °F  
Max Temperature 50 °F 54 °F 65 °F (1974)
Min Temperature 41 °F 39 °F 26 °F (1982)
Degree Days  
Heating Degree Days 19 18  
Month to date heating degree days 234 204  
Cooling Degree Days 0 0  
Month to date cooling degree days 0 0  
Moisture  
Dew Point 43 °F    
Average Humidity 87    
Maximum Humidity 93    
Minimum Humidity 80    
Precipitation  
Precipitation 0.14 in 0.25 in 1.48 in (1966)
Month to date precipitation 1.04 2.84  
Year to date precipitation 29.69 35.36  
Snow  
Snow 0.00 in - - ()
Month to date snowfall 0.0  
Snow Depth 0.00 in    
Sea Level Pressure  
Sea Level Pressure 29.86 in    
Wind  
Wind Speed 7 mph (SW)    
Max Wind Speed 22 mph    
Max Gust Speed 30 mph    
Visibility 9 miles    
Events Rain    
T = Trace of Precipitation, MM = Missing Value Source: NWS Daily Summary

Daily Weather History Graph

Daily Weather History Graph

Search for Another Location

Airport or City:

Astronomy

Nov. 12, 2011 Rise Set
Actual Time 7:04 AM PST 4:42 PM PST
Civil Twilight 6:32 AM PST 5:14 PM PST
Nautical Twilight 5:56 AM PST 5:50 PM PST
Astronomical Twilight 5:21 AM PST 6:24 PM PST
Moon 5:57 PM PST (11/12) 8:57 AM PST (11/12)
Length of Visible Light 10h 41m
Length of Day
9h 38m
Waning Gibbous, 96% of the Moon is Illuminated
Nov 12
Waning Gibbous
Nov 18
Last Quarter
Nov 24
New
Dec 2
First Quarter
Dec 10
Full

Hourly Weather History & Observations

Time (PST) Temp. Windchill Dew Point Humidity Pressure Visibility Wind Dir Wind Speed Gust Speed Precip Events Conditions
12:53 AM 44.1 °F 37.7 °F 39.0 °F 82% 29.81 in 10.0 mi WSW 12.7 mph 26.5 mph 0.00 in Rain Light Rain
1:29 AM 42.8 °F 38.6 °F 39.2 °F 87% 29.84 in 5.0 mi West 6.9 mph - 0.03 in Rain Light Rain
1:53 AM 42.1 °F 40.2 °F 39.9 °F 92% 29.84 in 10.0 mi NW 3.5 mph - 0.04 in   Overcast
2:53 AM 41.0 °F - 39.0 °F 93% 29.87 in 10.0 mi Calm Calm - 0.00 in   Overcast
3:53 AM 42.1 °F 40.2 °F 39.9 °F 92% 29.88 in 10.0 mi SW 3.5 mph - 0.00 in   Overcast
5:53 AM 42.1 °F - 39.9 °F 92% 29.92 in 10.0 mi Calm Calm - 0.00 in Rain Light Rain
7:53 AM 43.0 °F - 41.0 °F 93% 29.95 in 10.0 mi Calm Calm - 0.00 in   Overcast
8:53 AM 45.0 °F - 41.0 °F 86% 29.96 in 10.0 mi Calm Calm - N/A   Overcast
9:53 AM 46.0 °F - 41.0 °F 83% 29.96 in 10.0 mi Calm Calm - N/A   Overcast
10:53 AM 46.9 °F - 41.0 °F 80% 29.96 in 10.0 mi SW 9.2 mph - N/A   Overcast
11:53 AM 48.9 °F - 42.1 °F 77% 29.94 in 10.0 mi SW 10.4 mph - N/A   Overcast
12:53 PM 48.9 °F - 42.1 °F 77% 29.92 in 10.0 mi SW 6.9 mph - 0.00 in   Overcast
1:53 PM 48.9 °F - 42.1 °F 77% 29.90 in 10.0 mi SSW 9.2 mph 18.4 mph 0.00 in Rain Light Rain
2:53 PM 48.0 °F - 43.0 °F 83% 29.89 in 8.0 mi SSW 8.1 mph - 0.01 in Rain Light Rain
3:53 PM 48.0 °F - 44.1 °F 86% 29.85 in 8.0 mi SSW 5.8 mph - 0.02 in Rain Light Rain
4:05 PM 48.2 °F - 42.8 °F 82% 29.85 in 10.0 mi SSW 9.2 mph - 0.00 in Rain Light Rain
4:15 PM 48.2 °F - 44.6 °F 87% 29.84 in 10.0 mi SSW 8.1 mph - 0.00 in Rain Light Rain
4:53 PM 48.0 °F - 43.0 °F 83% 29.84 in 9.0 mi SW 10.4 mph 20.7 mph 0.02 in Rain Light Rain
5:09 PM 48.2 °F - 44.6 °F 87% 29.84 in 9.0 mi SW 8.1 mph - 0.01 in Rain Light Rain
5:49 PM 46.4 °F 41.5 °F 44.6 °F 93% 29.85 in 8.0 mi SSW 10.4 mph - 0.03 in Rain Light Rain
5:53 PM 46.9 °F - 44.1 °F 90% 29.85 in 8.0 mi SW 9.2 mph 18.4 mph 0.03 in Rain Light Rain
6:20 PM 46.4 °F 41.1 °F 44.6 °F 93% 29.84 in 10.0 mi SW 11.5 mph - 0.01 in Rain Light Rain
6:53 PM 46.9 °F - 43.0 °F 86% 29.81 in 10.0 mi SSW 11.5 mph - 0.01 in Rain Light Rain
7:10 PM 48.2 °F - 44.6 °F 87% 29.82 in 10.0 mi SSW 10.4 mph 16.1 mph 0.00 in   Overcast
7:53 PM 48.0 °F - 43.0 °F 83% 29.81 in 10.0 mi SW 9.2 mph 20.7 mph 0.00 in   Overcast
8:15 PM 48.2 °F - 44.6 °F 87% 29.80 in 10.0 mi SW 13.8 mph 23.0 mph N/A   Overcast
8:53 PM 48.0 °F - 44.1 °F 86% 29.81 in 10.0 mi SW 8.1 mph - N/A   Overcast
9:36 PM 48.2 °F - 44.6 °F 87% 29.80 in 10.0 mi SW 12.7 mph 16.1 mph 0.00 in Rain Light Rain
9:53 PM 48.0 °F - 44.1 °F 86% 29.79 in 10.0 mi SW 12.7 mph 20.7 mph 0.00 in Rain Light Rain
10:43 PM 48.2 °F - 44.6 °F 87% 29.80 in 6.0 mi SSW 13.8 mph 23.0 mph 0.00 in Rain Light Rain
10:53 PM 48.0 °F - 45.0 °F 89% 29.81 in 7.0 mi SW 18.4 mph 25.3 mph 0.01 in Rain Light Rain
11:16 PM 48.2 °F - 44.6 °F 87% 29.82 in 7.0 mi SW 19.6 mph 29.9 mph 0.00 in Rain Light Rain
11:53 PM 48.0 °F - 45.0 °F 89% 29.83 in 10.0 mi SW 13.8 mph 25.3 mph 0.00 in Rain Light Rain